Flight Information

DEPARTURE
TONOPAH, NV
Elevation:
5430
Runways:
H1 - 48x48 - ASPH-G
11/29 - 5660x50 - ASPH-L
15/33 - 7160x75 - ASPH-E
CTAF:
123.000
DESTINATION
,
Elevation:
TPA:
1000 (est.)


6660.3 NM73° True-15° Var57° HDG

Flight Plan:
(click to file on line)

1. Type
2. Aircraft Identification
3. Aircraft Type / Special Equipment
4. True Airspeed
kts
5. Departure Airport
(ICAO code)
6. Arriving Airport
(ICAO code)
7. Cruising Altitude
ft
8. Alternate Airport
(ICAO code)
9. Route of Flight
10. Remarks


00:00:00 Departure ATIS: Destination ATIS:

Clearance Limit:
Route:
Altitude: Expect in minutes
Frequency:
Transponder: (7500 Hijack / 7600 Lost Comms / 7700 Emergency)


KTPH 100456Z AUTO 05003KT 10SM CLR M01/M04 A3007 RMK AO2 SLP197 T10111039 $
Time: 2022-12-10T04:56:00Z
1670648872
Winds: 50 @ 3 kts
Visibility: 10.0 sm
Clouds (AGL): CLR
Temperature: -1.1 C
Dew Point: -3.9 C
Pressure: 30.070866 in Hgbr


Notes:

Data extracted from FAA Digital Chart Supplement. Effective: 0901Z Thursday, 27 JAN 2022 to 0900z Thursday, 24 MAR 2022
Current ATIS data is provided courtisy of PilotEdge.